Weather in Nizhnespasskoye

Russia / Tambov Oblast     52°37′42″N   41°46′24″E
temp.,
°C
wind,
m/s
gust,
m/s
humid.,
%
clouds,
%
prec.,
mm/h
press.,
hPa
HPBL,
m
18 september, sat
sat1800:00+8ne3555100 0.0 1020456
03:00+5ne256717 0.0 102093
06:00+4ne267397 0.0 1022133
09:00+8ene4553100 0.0 1022760
12:00+11e4536100 0.0 10221279
15:00+13e3432100 0.0 10211426
18:00+11e3639100 0.0 1021230
21:00+9ese3846100 0.0 1022316
19 september, sun
sun1900:00+9e4953100 0.0 1022426
03:00+8ese51155100 0.0 1021491
06:00+8ese51155100 0.0 1021511
09:00+7ese51164100 0.2 1021540
12:00+11ese61146100 0.1 1020644
15:00+13ese61040100 0.1 10191115
18:00+8e61479100 1.6 1018560
21:00+8ese81687100 5.4 1016790
20 september, mon
mon2000:00+8ese81787100 7.3 10141013
03:00+8ese71583100 10.2 1013807
06:00+9ese61387100 1.3 1012696
09:00+9ese71494100 1.8 1012692
12:00+9se71289100 0.1 1013636
15:00+9ese71285100 0.1 1013597
18:00+7ese71390100 0.4 1012578
21:00+8ese61392100 0.7 1012592
21 september, tue
tue2100:00+9se61291100 0.2 1011520
03:00+8ese4993100 0.4 1011265
06:00+9se41195100 0.7 1010419
09:00+10sse259132 1.6 1010276
12:00+14sw4667100 0.3 10101410
15:00+15sw4650100 0.3 10101792
18:00+12wsw2469100 0.0 1011129
21:00+10wsw2680100 0.0 1011258
22 september, wed
wed2200:00+10wsw3685100 0.0 1011439
03:00+7wsw2591100 0.0 1011158
06:00+6sw2394100 0.0 1011102
09:00+9sw3477100 0.0 1011672
12:00+11sw356499 0.1 10111274
15:00+10wsw457194 0.6 1011957
18:00+8sw377399 0.1 1012607
21:00+7sw3579100 0.1 1013523